Weather History for Quincy, IL

Change the Weather History Date:

Monday, November 29, 2010

  Actual Average Record
Temperature  
Mean Temperature 46 °F 36 °F  
Max Temperature 50 °F 44 °F 76 °F (1933)
Min Temperature 37 °F 28 °F -1 °F (1964)
Degree Days  
Heating Degree Days 19 29  
Month to date heating degree days 647  
Since 1 July heating degree days 1071  
Cooling Degree Days 0 0  
Month to date cooling degree days 0  
Year to date cooling degree days 1093  
Moisture  
Dew Point 39 °F    
Average Humidity 78    
Maximum Humidity 93    
Minimum Humidity 58    
Precipitation  
Precipitation 0.03 in 0.10 in 2.34 in (2006)
Month to date precipitation 2.93  
Year to date precipitation 34.99  
Sea Level Pressure  
Sea Level Pressure 29.72 in    
Wind  
Wind Speed 13 mph (South)    
Max Wind Speed 21 mph    
Max Gust Speed 30 mph    
Visibility 10 miles    
Events Rain , Thunderstorm    
T = Trace of Precipitation, MM = Missing Value Source: NWS Daily Summary

Daily Weather History Graph

Daily Weather History Graph

Search for Another Location

Airport:

Trip Planner

Search our weather history database for the weather conditions in past years. The results will help you decide how hot, cold, wet, or windy it might be!

Date:

Astronomy

Nov. 29, 2010 Rise Set
Actual Time 7:05 AM CST 4:40 PM CST
Civil Twilight 6:35 AM CST 5:10 PM CST
Nautical Twilight 6:01 AM CST 5:44 PM CST
Astronomical Twilight 5:29 AM CST 6:16 PM CST
Moon 12:12 AM CST (11/29) 12:41 PM CST (11/29)
Length of Visible Light 10h 35m
Length of Day
9h 35m
Last Quarter, 40% of the Moon is Illuminated
Nov 29
Last Quarter
Dec 5
New
Dec 13
First Quarter
Dec 21
Full
Dec 27
Last Quarter

Hourly Weather History & Observations

Time (CST) Temp. Windchill Dew Point Humidity Pressure Visibility Wind Dir Wind Speed Gust Speed Precip Events Conditions
12:54 AM 42.1 °F 35.7 °F 30.9 °F 65% 29.89 in 10.0 mi SSE 11.5 mph - N/A   Clear
1:54 AM 42.1 °F 35.2 °F 30.0 °F 62% 29.87 in 10.0 mi SSE 12.7 mph 20.7 mph N/A   Clear
2:54 AM 42.1 °F 35.2 °F 30.0 °F 62% 29.86 in 10.0 mi SSE 12.7 mph - N/A   Partly Cloudy
3:54 AM 43.0 °F 36.0 °F 30.9 °F 62% 29.84 in 10.0 mi SSE 13.8 mph - N/A   Overcast
4:54 AM 45.0 °F 39.3 °F 30.9 °F 58% 29.85 in 10.0 mi SSE 11.5 mph - N/A   Overcast
5:54 AM 45.0 °F 38.9 °F 30.9 °F 58% 29.84 in 10.0 mi SSE 12.7 mph - N/A   Overcast
6:54 AM 44.6 °F 38.1 °F 32.0 °F 61% 29.84 in 10.0 mi SSE 13.8 mph - N/A   Overcast
7:54 AM 46.0 °F 39.9 °F 33.1 °F 61% 29.83 in 10.0 mi SSE 13.8 mph - N/A   Overcast
8:54 AM 46.4 °F 41.1 °F 35.6 °F 66% 29.81 in 10.0 mi SSE 11.5 mph - N/A   Overcast
9:54 AM 48.9 °F - 37.0 °F 64% 29.79 in 10.0 mi SSE 16.1 mph 25.3 mph N/A   Overcast
10:54 AM 50.0 °F - 37.9 °F 63% 29.78 in 10.0 mi SSE 20.7 mph 26.5 mph N/A   Mostly Cloudy
11:54 AM 50.0 °F - 37.9 °F 63% 29.69 in 10.0 mi SSE 18.4 mph 29.9 mph N/A   Partly Cloudy
12:35 PM 48.2 °F - 39.2 °F 71% 29.71 in 7.0 mi South 12.7 mph - 0.01 in Rain , Thunderstorm Light Rain
12:54 PM 48.0 °F - 41.0 °F 77% 29.70 in 10.0 mi SSE 11.5 mph 20.7 mph 0.01 in Rain Light Rain
1:16 PM 46.4 °F 44.3 °F 41.0 °F 81% 29.69 in 10.0 mi SSE 4.6 mph - 0.01 in Rain Light Rain
1:54 PM 46.4 °F 40.4 °F 42.8 °F 87% 29.68 in 4.0 mi SSE 13.8 mph - N/A Rain Light Rain
2:54 PM 46.9 °F - 43.0 °F 86% 29.68 in 5.0 mi SSE 11.5 mph - 0.02 in Rain Light Rain
3:42 PM 46.4 °F 40.4 °F 44.6 °F 93% 29.67 in 10.0 mi SSE 13.8 mph 24.2 mph 0.00 in Rain Light Rain
3:54 PM 46.9 °F - 44.1 °F 90% 29.67 in 10.0 mi SSE 16.1 mph - 0.00 in   Overcast
4:06 PM 46.4 °F 39.8 °F 44.6 °F 93% 29.66 in 10.0 mi SSE 16.1 mph 24.2 mph N/A   Overcast
4:24 PM 46.4 °F 40.1 °F 44.6 °F 93% 29.66 in 10.0 mi SSE 15.0 mph 20.7 mph N/A   Overcast
4:54 PM 46.9 °F - 44.1 °F 90% 29.67 in 10.0 mi South 15.0 mph 21.9 mph N/A   Overcast
5:54 PM 46.9 °F - 44.1 °F 90% 29.65 in 10.0 mi South 15.0 mph 23.0 mph N/A   Overcast
6:39 PM 46.4 °F 40.4 °F 44.6 °F 93% 29.64 in 10.0 mi South 13.8 mph 23.0 mph N/A   Overcast
6:54 PM 48.0 °F - 45.0 °F 89% 29.64 in 10.0 mi South 12.7 mph - N/A   Overcast
7:54 PM 48.0 °F - 46.0 °F 93% 29.62 in 10.0 mi South 16.1 mph 26.5 mph N/A   Overcast
8:54 PM 48.0 °F - 46.0 °F 93% 29.63 in 10.0 mi South 10.4 mph - N/A   Overcast
9:16 PM 48.2 °F - 46.4 °F 93% 29.62 in 10.0 mi South 12.7 mph - N/A   Overcast
9:54 PM 48.9 °F - 46.0 °F 90% 29.65 in 10.0 mi SW 10.4 mph - N/A   Overcast
10:28 PM 44.6 °F 38.1 °F 39.2 °F 81% 29.64 in 10.0 mi West 13.8 mph - N/A   Mostly Cloudy
10:37 PM 44.6 °F 37.2 °F 39.2 °F 81% 29.64 in 10.0 mi West 17.3 mph 26.5 mph N/A   Mostly Cloudy
10:45 PM 42.8 °F 35.1 °F 37.4 °F 81% 29.64 in 10.0 mi West 16.1 mph 26.5 mph N/A   Mostly Cloudy
10:54 PM 42.1 °F 33.9 °F 37.0 °F 82% 29.66 in 10.0 mi West 17.3 mph 26.5 mph N/A   Overcast
11:54 PM 37.0 °F 27.4 °F 33.1 °F 86% 29.70 in 9.0 mi West 17.3 mph 23.0 mph N/A   Overcast